Regional Weather Roundup
Issued by NWS

Home | Current Version | Previous Version | Graphics & Text | Print | Product List | Glossary On
Versions: 1 2 3 4 5 6 7 8 9 10 11 12 13 14 15 16 17 18 19 20 21 22 23 24 25 26 27 28 29 30 31 32 33 34 35 36 37 38 39 40 41 42 43 44 45 46 47 48 49 50
000
ASUS43 KBIS 180001
RWRND

NORTH DAKOTA REGIONAL WEATHER ROUNDUP
NATIONAL WEATHER SERVICE BISMARCK ND
700 PM CDT FRI APR 17 2015

NOTE: "FAIR" INDICATES FEW OR NO CLOUDS BELOW 12,000 FEET WITH NO
SIGNIFICANT WEATHER AND/OR OBSTRUCTIONS TO VISIBILITY.


NDZ001>003-009>011-017-180100-
NORTHWEST NORTH DAKOTA

CITY           SKY/WX    TMP DP  RH WIND       PRES   REMARKS
WILLISTON      SUNNY     70  26  19 NE13      30.07S
6HR MIN TEMP:  67; 6HR MAX TEMP:  72;

MINOT          SUNNY     63  25  23 N15       30.09R
MINOT AFB      SUNNY     63  28  26 NE16      30.08R
$$

NDZ018>021-031>035-040>046-180100-
SOUTHWEST NORTH DAKOTA

CITY           SKY/WX    TMP DP  RH WIND       PRES   REMARKS
BISMARCK       PTSUNNY   72  25  17 VRB3      30.06S
6HR MIN TEMP:  68; 6HR MAX TEMP:  73;

DICKINSON      MOSUNNY   68  19  15 NE6       30.06F
GARRISON         N/A     69  28  21 NE8       30.07S
6HR MIN TEMP:  69; 6HR MAX TEMP:  73;

HETTINGER ARPT PTSUNNY   66  19  16 CALM      30.09S
$$

NDZ004>008-012>016-024-026-027-054-180100-
NORTHEAST NORTH DAKOTA

CITY           SKY/WX    TMP DP  RH WIND       PRES   REMARKS
GRAND FORKS    SUNNY     65  21  18 N21G29    30.05R
GRND FRKS AFB  SUNNY     65  20  18 NE21G31   30.06R
DEVILS LAKE    SUNNY     66  21  18 N15       30.06S
$$

NDZ022-023-025-028>030-036>039-047>053-180100-
SOUTHEAST NORTH DAKOTA

CITY           SKY/WX    TMP DP  RH WIND       PRES   REMARKS
FARGO          SUNNY     74  21  13 NW13      30.00F
6HR MIN TEMP:  70; 6HR MAX TEMP:  77;

JAMESTOWN      PTSUNNY   72  24  16 N15       30.02S
$$



USA.gov is the U.S. government's official web portal to all federal, state and local government web resources and services.